EW0050 Weather Reports


time (UTC)temp
C
wind
direction
speed
KPH
gust
KPH
rain 1hr
cm
rain 24hr
cm
rain mn
cm
humidity
%
barometer
mb
20260507105927 18 277 11.3 19.3 0.00 0.00 0.00 68 1012.8
20260507102912 18 254 6.4 16.1 0.00 0.00 0.00 67 1013.0
20260507095955 18 261 11.3 14.5 0.00 0.00 0.00 67 1013.2
20260507092925 17 270 9.7 16.1 0.00 0.00 0.00 68 1013.3
20260507085913 17 229 9.7 17.7 0.00 0.00 0.00 69 1013.1
20260507082927 17 246 9.7 14.5 0.00 0.00 0.00 70 1012.9
20260507075943 16 232 8.0 12.9 0.00 0.00 0.00 71 1012.8
20260507072937 16 216 8.0 11.3 0.00 0.00 0.00 80 1013.0
20260507065924 15 220 3.2 9.7 0.00 0.00 0.00 87 1012.8
20260507062939 15 256 1.6 6.4 0.00 0.00 0.00 89 1012.5
20260507055930 14 291 0.0 0.0 0.00 0.00 0.00 90 1012.6
20260507052925 12 291 0.0 0.0 0.00 0.00 0.00 89 1012.4
20260507045933 11 291 0.0 0.0 0.00 0.00 0.00 88 1012.1
20260507042931 12 291 0.0 0.0 0.00 0.10 0.00 87 1011.9
20260507035924 12 291 0.0 0.0 0.00 0.10 0.00 87 1011.9
20260507032920 13 291 0.0 0.0 0.00 0.10 0.00 86 1011.8
20260507025925 13 291 0.0 0.0 0.00 0.10 0.00 85 1011.9
20260507022915 14 291 0.0 0.0 0.00 0.10 0.03 85 1011.9
20260507015926 15 291 3.2 4.8 0.00 0.10 0.03 84 1011.9
20260507012924 15 294 1.6 4.8 0.00 0.10 0.03 84 1012.0
20260507005917 15 325 4.8 8.0 0.00 0.10 0.03 84 1012.1
20260507002926 15 231 6.4 12.9 0.00 4.19 0.03 83 1012.3
20260506235913 16 231 11.3 20.9 0.00 4.19 0.03 83 1012.5
20260506232928 16 255 11.3 22.5 0.00 4.29 0.03 82 1012.7
20260506225939 16 235 9.7 27.4 0.00 4.29 0.03 82 1012.9
20260506222929 16 287 12.9 24.1 0.00 4.29 0.03 81 1012.9
20260506215918 15 241 11.3 20.9 0.00 4.29 0.03 80 1012.8
20260506212913 15 322 4.8 8.0 0.00 4.29 0.03 78 1012.7
20260506205925 15 303 3.2 6.4 0.00 4.29 0.03 77 1012.7
20260506202912 15 308 3.2 6.4 0.00 4.29 0.03 76 1012.4
20260506195925 16 300 1.6 4.8 0.00 4.29 0.03 74 1012.1
20260506192936 16 255 4.8 12.9 0.00 4.29 0.03 74 1011.6
20260506185921 16 278 8.0 19.3 0.00 4.29 0.03 73 1011.1
20260506182916 16 248 11.3 17.7 0.00 4.29 0.03 72 1010.8
20260506175931 17 266 9.7 16.1 0.00 4.29 0.03 70 1010.6
20260506172920 17 216 9.7 16.1 0.00 4.29 0.03 71 1010.2
20260506165934 17 263 9.7 19.3 0.00 4.29 0.03 69 1010.2
20260506162921 17 253 12.9 24.1 0.00 4.29 0.03 70 1010.2
20260506155914 17 216 12.9 19.3 0.00 4.29 0.03 68 1010.4
20260506152950 17 232 9.7 20.9 0.00 4.29 0.03 69 1010.3
20260506145942 17 254 11.3 20.9 0.00 4.29 0.03 67 1010.3
20260506142928 18 227 14.5 25.7 0.00 4.29 0.03 67 1010.6
20260506135928 18 244 14.5 22.5 0.00 4.29 0.03 67 1010.6
20260506132914 18 231 12.9 22.5 0.00 4.29 0.03 68 1010.9
20260506125929 18 241 12.9 20.9 0.00 4.29 0.03 69 1010.9
20260506122923 17 244 14.5 25.7 0.00 4.29 0.03 70 1010.9
20260506115928 17 268 16.1 33.8 0.00 4.29 0.03 70 1010.8
20260506112923 17 227 11.3 27.4 0.00 4.29 0.03 70 1010.8